EW2309 Weather Reports


Display with metric or nautical units.
time (UTC)temp
F
wind
direction
speed
MPH
gust
MPH
rain 1hr
in
rain 24hr
in
rain mn
in
humidity
%
barometer
mb
20240624040030 77 315 2.0 9.0 0.00 0.00 0.00 84 1010.8
20240624034526 78 340 1.0 3.0 0.00 0.00 0.00 81 1010.4
20240624033008 79 338 1.0 5.0 0.00 0.00 0.00 79 1010.4
20240624031515 79 52 1.0 0.0 0.00 0.00 0.00 77 1010.1
20240624030050 78 212 0.0 2.0 0.00 0.00 0.00 77 1009.9
20240624024549 78 220 0.0 2.0 0.00 0.00 0.00 77 1009.7
20240624023031 78 227 0.0 1.0 0.00 0.00 0.00 77 1009.9
20240624021531 78 227 0.0 1.0 0.00 0.00 0.00 77 1009.7
20240624020015 79 227 0.0 0.0 0.00 0.00 0.00 77 1009.7
20240624014513 79 227 0.0 0.0 0.00 0.00 0.00 75 1009.9
20240624013055 79 227 0.0 1.0 0.00 0.00 0.00 75 1009.8
20240624011603 80 227 0.0 1.0 0.00 0.00 0.00 73 1009.8
20240624010135 81 227 0.0 1.0 0.00 0.00 0.00 73 1009.6
20240624004536 81 246 0.0 2.0 0.00 0.00 0.00 72 1009.5
20240624003018 82 246 0.0 1.0 0.00 0.00 0.00 72 1009.4
20240624001517 83 248 0.0 2.0 0.00 0.00 0.00 70 1009.2
20240624000100 83 252 0.0 2.0 0.00 0.00 0.00 68 1009.1
20240623234613 84 308 0.0 2.0 0.00 0.00 0.00 68 1009.3
20240623233039 85 155 1.0 3.0 0.00 0.00 0.00 66 1009.6
20240623231542 85 194 0.0 3.0 0.00 0.00 0.00 66 1009.4
20240623230024 86 188 0.0 2.0 0.00 0.00 0.00 64 1009.3
20240623224519 87 280 0.0 2.0 0.00 0.00 0.00 64 1009.5
20240623223108 88 163 1.0 6.0 0.00 0.00 0.00 58 1009.6
20240623221606 88 129 2.0 4.0 0.00 0.00 0.00 57 1009.7
20240623220047 89 198 1.0 4.0 0.00 0.00 0.00 57 1009.7
20240623214540 89 86 1.0 5.0 0.00 0.00 0.00 59 1009.8
20240623213022 90 155 0.0 4.0 0.00 0.00 0.00 57 1010.0
20240623211520 91 153 1.0 7.0 0.00 0.00 0.00 52 1010.1
20240623210002 90 326 1.0 5.0 0.00 0.00 0.00 52 1010.3
20240623204608 91 221 1.0 5.0 0.00 0.00 0.00 54 1010.4
20240623203042 91 173 1.0 7.0 0.00 0.00 0.00 53 1010.4
20240623201539 91 144 1.0 5.0 0.00 0.00 0.00 51 1010.6
20240623200031 93 261 2.0 4.0 0.00 0.00 0.00 52 1010.8
20240623194522 93 205 0.0 4.0 0.00 0.00 0.00 53 1010.9
20240623193036 92 10 1.0 5.0 0.00 0.00 0.00 52 1011.2
20240623191530 92 180 1.0 5.0 0.00 0.00 0.00 55 1011.3
20240623190024 92 208 2.0 7.0 0.00 0.00 0.00 51 1011.6
20240623184512 92 195 1.0 4.0 0.00 0.00 0.00 52 1012.0
20240623183008 90 203 0.0 5.0 0.00 0.00 0.00 54 1012.2
20240623181506 90 72 1.0 3.0 0.00 0.00 0.00 56 1012.3
20240623180058 90 223 1.0 5.0 0.00 0.00 0.00 56 1012.6
20240623174552 89 78 0.0 5.0 0.00 0.00 0.00 60 1012.7
20240623173024 88 321 1.0 4.0 0.00 0.00 0.00 57 1012.9
20240623171523 89 212 0.0 4.0 0.00 0.00 0.00 58 1013.2
20240623170004 89 167 1.0 7.0 0.00 0.00 0.00 58 1013.2
20240623164603 88 59 0.0 5.0 0.00 0.00 0.00 55 1013.3
20240623163046 88 173 1.0 4.0 0.00 0.00 0.00 60 1013.4
20240623161544 87 150 0.0 3.0 0.00 0.00 0.00 64 1013.4
20240623160018 86 68 2.0 7.0 0.00 0.00 0.00 61 1013.5
20240623154516 85 96 0.0 4.0 0.00 0.00 0.00 62 1013.6
20240623153111 84 24 2.0 4.0 0.00 0.00 0.00 66 1013.6
20240623151600 82 181 0.0 3.0 0.00 0.00 0.00 72 1013.6
20240623150045 80 51 1.0 2.0 0.00 0.00 0.00 78 1013.7
20240623144527 79 53 0.0 0.0 0.00 0.00 0.00 80 1013.7
20240623143034 78 53 0.0 0.0 0.00 0.00 0.00 79 1013.7
20240623141507 77 53 0.0 1.0 0.00 0.00 0.00 84 1013.9
20240623140058 76 231 0.0 0.0 0.00 0.00 0.00 85 1014.0
20240623134538 75 231 0.0 0.0 0.00 0.00 0.00 86 1013.9
20240623133035 74 231 0.0 0.0 0.00 0.00 0.00 86 1013.9
20240623131534 73 231 0.0 0.0 0.00 0.00 0.00 86 1014.0
20240623130012 73 231 0.0 0.0 0.00 0.00 0.00 88 1013.9
20240623124553 72 240 0.0 0.0 0.00 0.00 0.00 87 1013.8
20240623123103 71 240 0.0 0.0 0.00 0.00 0.00 90 1013.7
20240623121532 71 241 0.0 0.0 0.00 0.00 0.00 90 1013.7
20240623120038 70 232 0.0 0.0 0.00 0.00 0.00 90 1013.6
20240623114518 69 231 0.0 0.0 0.00 0.00 0.00 89 1013.5
20240623113024 69 231 0.0 0.0 0.00 0.00 0.00 88 1013.5
20240623111517 69 231 0.0 0.0 0.00 0.00 0.00 88 1013.3
20240623110017 68 231 0.0 0.0 0.00 0.00 0.00 88 1013.1
20240623104515 68 231 0.0 0.0 0.00 0.00 0.00 87 1013.1
20240623103014 68 231 0.0 0.0 0.00 0.00 0.00 87 1013.1
20240623101533 68 231 0.0 0.0 0.00 0.00 0.00 87 1013.2
20240623100018 68 231 0.0 0.0 0.00 0.00 0.00 86 1013.3
20240623094552 69 231 0.0 0.0 0.00 0.00 0.00 85 1013.3
20240623093051 69 231 0.0 0.0 0.00 0.00 0.00 85 1013.3
20240623091532 69 231 0.0 0.0 0.00 0.00 0.00 85 1013.3
20240623090030 69 231 0.0 0.0 0.00 0.00 0.00 85 1013.3
20240623084520 70 231 0.0 0.0 0.00 0.00 0.00 84 1013.3
20240623083023 70 232 0.0 0.0 0.00 0.00 0.00 83 1013.2
20240623081539 70 231 0.0 0.0 0.00 0.00 0.00 82 1013.4
20240623080016 70 231 0.0 0.0 0.00 0.00 0.00 82 1013.3
20240623074514 71 231 0.0 0.0 0.00 0.00 0.00 81 1013.4
20240623073013 71 231 0.0 0.0 0.00 0.00 0.00 81 1013.5
20240623071511 71 231 0.0 0.0 0.00 0.00 0.00 80 1013.5
20240623070009 71 231 0.0 0.0 0.00 0.00 0.00 79 1013.5
20240623064555 72 231 0.0 0.0 0.00 0.00 0.00 78 1013.6
20240623063049 72 231 0.0 0.0 0.00 0.00 0.00 77 1013.6
20240623061531 72 231 0.0 0.0 0.00 0.00 0.00 77 1013.7
20240623060030 72 231 0.0 0.0 0.00 0.00 0.00 77 1013.7
20240623054513 73 231 0.0 1.0 0.00 0.00 0.00 77 1013.9
20240623053011 73 231 0.0 1.0 0.00 0.00 0.00 77 1014.1
20240623051553 73 232 0.0 0.0 0.00 0.00 0.00 77 1014.3
20240623050053 73 232 0.0 0.0 0.00 0.00 0.00 78 1014.4
20240623044544 73 232 0.0 0.0 0.00 0.00 0.00 77 1014.4
20240623043034 74 232 0.0 1.0 0.00 0.00 0.00 76 1014.3
20240623041516 74 232 0.0 3.0 0.00 0.00 0.00 77 1014.5